LICCLGKR

Guest
Details From LICC - Catania Fontanarossa
To LGKR - IOANNIS KAPODISTRIAS INTL
Flight Number -
Tags generated
Created
Modified
Stats Distance 272 nm / 503 km
Max Altitude 29,200 ft / 8,900 m
Waypoints 6
Social Downloads 0
Likes 0
Share VATSIM

Download

Looking for another format? Having issues loading an existing format? Contact us
Advertisement - Login to hide

Notes

Basic altitude profile: - Ascent Rate: 2500ft/min - Ascent Speed: 250kts - Cruise Altitude: 35000ft - Cruise Speed: 420kts - Descent Rate: 1500ft/min - Descent Speed: 250kts Options: - Use NATs: yes - Use PACOTS: yes - Use low airways: yes - Use high airways: yes

Route

LICC RCA L137 CDC UL869 GEMVI LGKR

ID Type Via Altitude (ft/m) Position (lat/lon) Dist (leg/tot) Name
O LICC APT - 0 / 0 37.46678 / 15.06640 - / 0 nm Catania Fontanarossa
RCA VOR - 15,300 / 4,663 38.07610 / 15.64527 45 / 45 nm REGGIO CALABRIA VOR-DME
CDC VOR L137 (AWY-LO) 19,500 / 5,944 38.75583 / 16.36917 53 / 98 nm CARAFFA DI CATANZARO VORTAC
CRN VOR UL869 (AWY-HI) 29,200 / 8,900 38.99611 / 17.08305 36 / 135 nm CROTONE VOR-DME
GEMVI FIX UL869 (AWY-HI) 21,800 / 6,645 39.11278 / 17.80528 34 / 169 nm
O LGKR APT - 0 / 0 39.60178 / 19.91191 102 / 271 nm IOANNIS KAPODISTRIAS INTL

Altitude Profile

Advertisement - Login to hide

Weather


0- 5 10 15 20 25 30 35+ Temperature / °C

Clouds and Precipitation
Forecast for 2019-06-12 12:00 UTC. Updated 13 days ago

Ground ~20,000 ft ~40,000 ft Winds

LICC

Details ICAO LICC (CTA)
Name Catania Fontanarossa
Region Italy
Timezone Europe/Rome (UTC+2.0)
Stats Elevation 39 ft / 12 m (AMSL)
Location 37.466800° 15.066500°
Runways 1
Magnetic Variation 3.363° E

METAR

LICC 242120Z 08003KT CAVOK 24/19 Q1016

Decode

TAF

TAF LICC 241700Z 2418/2518 08012KT 9999 FEW030 BECMG 2418/2420 VRB05KT BECMG 2510/2512 12010KT

Decode

Departure Runways

ID Width Length Bearing (true/mag) Surface Threshold Overrun Markings Lighting
08 148 ft / 45 m 8,000 ft / 2,438 m 83.94° / 80.58° ASPHALT 0 ft / 0 m 0 ft / 0 m APP CENTERLINE EDGE THRESHOLD MALSF
26 148 ft / 45 m 8,000 ft / 2,438 m 263.96° / 260.59° ASPHALT 0 ft / 0 m 0 ft / 0 m APP CENTERLINE EDGE THRESHOLD MALSF

LGKR

Details ICAO LGKR (CFU)
Name IOANNIS KAPODISTRIAS INTL
Region Greece
Timezone Europe/Athens (UTC+3.0)
Stats Elevation 0 ft / 0 m (AMSL)
Location 39.602300° 19.912000°
Runways 1
Magnetic Variation 4.250° E

METAR

LGKR 242120Z 19002KT CAVOK 24/20 Q1012 NOSIG

Decode

TAF

TAF LGKR 241700Z 2418/2518 31015KT 9999 FEW020

Decode

Destination Runways

ID Width Length Bearing (true/mag) Surface Threshold Overrun Markings Lighting
17 148 ft / 45 m 7,604 ft / 2,318 m 168.78° / 164.53° ASPHALT 1,342 ft / 409 m 0 ft / 0 m PREC-APP EDGE THRESHOLD ALSF-I
35 148 ft / 45 m 7,604 ft / 2,318 m 348.79° / 344.53° ASPHALT 0 ft / 0 m 0 ft / 0 m PREC-APP EDGE THRESHOLD SALS REIL-OMNI

Popular Alternatives